EW0013 Weather Reports


time (UTC)temp
C
wind
direction
speed
KPH
gust
KPH
rain 1hr
cm
rain 24hr
cm
rain mn
cm
humidity
%
barometer
mb
20260507034042 2 101 0.0 0.0 0.05 1.24 0.99 80 1017.7
20260507033529 2 101 0.0 0.0 0.05 1.24 0.99 80 1017.7
20260507033030 2 101 0.0 0.0 0.05 1.24 0.99 79 1017.8
20260507032530 2 101 0.0 0.0 0.05 1.24 0.99 79 1017.7
20260507032019 2 101 0.0 0.0 0.08 1.24 0.99 78 1017.7
20260507031529 2 101 0.0 0.0 0.08 1.24 0.99 78 1017.7
20260507031036 3 101 0.0 0.0 0.05 1.22 0.97 77 1017.6
20260507030537 3 101 0.0 0.0 0.05 1.22 0.97 77 1017.6
20260507030025 3 101 0.0 0.0 0.05 1.37 0.97 76 1017.6
20260507025522 3 101 0.0 0.0 0.08 1.37 0.97 76 1017.4
20260507025050 3 101 0.0 0.0 0.08 1.37 0.97 75 1017.4
20260507024531 3 101 0.0 0.0 0.05 1.35 0.94 75 1017.4
20260507024039 3 101 0.0 0.0 0.05 1.35 0.94 74 1017.4
20260507023521 3 101 0.0 0.0 0.08 1.35 0.94 74 1017.4
20260507023022 4 101 0.0 0.0 0.08 1.35 0.94 73 1017.3
20260507022530 4 101 0.0 0.0 0.08 1.35 0.94 72 1017.4
20260507022031 4 101 0.0 0.0 0.05 1.32 0.91 71 1017.3
20260507021539 4 101 0.0 0.0 0.05 1.32 0.91 71 1017.3
20260507021040 5 101 0.0 0.0 0.08 1.32 0.91 71 1017.2
20260507020521 5 101 0.0 0.0 0.08 1.32 0.91 70 1017.2
20260507020030 5 101 0.0 0.0 0.08 1.32 0.91 70 1017.1
20260507015554 5 101 0.0 0.0 0.05 1.50 0.89 70 1017.1
20260507015014 5 101 0.0 0.0 0.08 1.50 0.89 70 1017.0
20260507014516 5 101 0.0 0.0 0.08 1.50 0.89 70 1017.0
20260507014018 5 101 0.0 0.0 0.08 1.50 0.89 71 1017.0
20260507013526 5 101 0.0 0.0 0.05 1.47 0.86 70 1017.0
20260507013054 5 101 0.0 1.6 0.08 1.47 0.86 70 1016.9
20260507012534 5 101 0.0 3.2 0.08 1.47 0.86 69 1016.9
20260507012014 5 101 0.0 4.8 0.08 1.47 0.86 69 1017.0
20260507011523 5 101 0.0 4.8 0.05 1.45 0.84 68 1016.9
20260507010531 5 88 0.0 3.2 0.08 1.45 0.84 67 1017.0
20260507010031 6 97 0.0 3.2 0.08 1.45 0.84 67 1017.0
20260507005513 6 94 0.0 3.2 0.05 1.68 0.81 66 1017.1
20260507005014 6 105 1.6 3.2 0.08 1.68 0.81 67 1017.1
20260507004522 6 105 0.0 3.2 0.08 1.68 0.81 67 1017.1
20260507004024 6 105 0.0 1.6 0.08 1.68 0.81 67 1017.2
20260507003532 5 105 0.0 1.6 0.08 1.68 0.81 68 1017.1
20260507003014 5 105 0.0 3.2 0.08 1.65 0.79 68 1017.2
20260507002522 5 108 0.0 3.2 0.08 1.65 0.79 67 1017.3
20260507002022 5 114 0.0 3.2 0.08 1.65 0.79 66 1017.3
20260507001549 5 113 0.0 3.2 0.10 1.65 0.79 66 1017.5
20260507001029 5 102 0.0 4.8 0.08 1.63 0.76 67 1017.5
20260507000530 5 102 1.6 4.8 0.08 1.63 0.76 68 1017.5
20260507000019 5 104 0.0 4.8 0.08 1.70 0.76 68 1017.5
20260506235520 5 103 1.6 4.8 0.10 1.70 0.76 68 1017.6
20260506235021 5 96 0.0 4.8 0.08 1.68 0.74 69 1017.7
20260506234528 5 97 0.0 0.0 0.08 1.68 0.74 68 1017.7
20260506234029 5 97 0.0 8.0 0.08 1.68 0.74 69 1017.8
20260506233515 5 97 3.2 8.0 0.10 1.68 0.74 69 1017.8
20260506233017 5 117 0.0 3.2 0.08 1.65 0.71 69 1017.9
20260506232545 5 117 0.0 3.2 0.08 1.65 0.71 68 1017.9
20260506232054 5 126 0.0 4.8 0.08 1.65 0.71 68 1017.9
20260506231513 5 124 0.0 4.8 0.08 1.63 0.69 68 1017.8
20260506231014 5 123 1.6 4.8 0.08 1.63 0.69 69 1017.8
20260506230516 5 94 0.0 4.8 0.08 1.63 0.69 69 1017.7
20260506230022 5 98 1.6 4.8 0.10 1.63 0.69 69 1017.7
20260506225524 5 105 0.0 8.0 0.08 1.60 0.66 69 1017.7
20260506225033 5 88 1.6 8.0 0.08 1.60 0.66 69 1017.8
20260506224534 5 119 0.0 4.8 0.10 1.60 0.66 70 1017.8
20260506224015 5 121 1.6 8.0 0.10 1.60 0.66 70 1017.9
20260506223523 5 106 1.6 8.0 0.08 1.57 0.64 70 1018.0
20260506223024 5 118 0.0 6.4 0.08 1.57 0.64 70 1018.0
20260506222532 4 109 1.6 4.8 0.10 1.57 0.64 70 1018.0
20260506222034 4 109 0.0 8.0 0.08 1.55 0.61 69 1018.1
20260506221514 5 92 1.6 4.8 0.08 1.55 0.61 68 1018.1
20260506221041 5 110 0.0 3.2 0.10 1.55 0.61 69 1018.3
20260506220527 5 105 0.0 3.2 0.10 1.55 0.61 70 1018.3
20260506220029 5 93 0.0 3.2 0.08 1.52 0.58 70 1018.4
20260506215557 5 107 0.0 4.8 0.08 1.52 0.58 69 1018.4
20260506215037 4 109 1.6 9.7 0.10 1.52 0.58 68 1018.5
20260506214524 4 90 0.0 9.7 0.08 1.50 0.56 68 1018.6
20260506214026 5 111 0.0 8.0 0.08 1.50 0.56 69 1018.7
20260506213555 5 112 0.0 8.0 0.08 1.50 0.56 69 1018.6
20260506213015 5 109 1.6 8.0 0.10 1.50 0.56 69 1018.8
20260506212517 5 107 0.0 6.4 0.08 1.47 0.53 70 1018.8
20260506212020 5 103 1.6 3.2 0.08 1.47 0.53 70 1018.9
20260506211529 5 111 0.0 6.4 0.08 1.47 0.53 70 1018.9
20260506211025 5 111 0.0 6.4 0.08 1.45 0.51 70 1019.0
20260506210535 5 105 0.0 3.2 0.08 1.45 0.51 69 1019.0
20260506210050 5 106 0.0 0.0 0.08 1.45 0.51 70 1019.0
20260506205514 5 122 0.0 0.0 0.08 1.45 0.51 70 1019.1
20260506205015 5 157 0.0 0.0 0.05 1.42 0.48 71 1019.2
20260506204524 5 157 0.0 0.0 0.08 1.42 0.48 71 1019.2
20260506204024 5 130 0.0 1.6 0.08 1.42 0.48 70 1019.2
20260506203553 5 94 0.0 4.8 0.08 1.42 0.48 69 1019.3
20260506203100 5 100 1.6 4.8 0.05 1.40 0.46 69 1019.4
20260506202541 5 167 0.0 4.8 0.05 1.40 0.46 68 1019.5
20260506202022 5 98 0.0 4.8 0.05 1.40 0.46 69 1019.5
20260506201530 5 86 1.6 4.8 0.08 1.40 0.46 69 1019.6
20260506201031 5 103 0.0 4.8 0.05 1.37 0.43 69 1019.6
20260506200512 5 78 0.0 3.2 0.05 1.37 0.43 71 1019.7
20260506200022 5 78 0.0 4.8 0.05 1.40 0.43 72 1019.7
20260506195523 5 76 1.6 4.8 0.05 1.40 0.43 73 1019.7
20260506195034 5 63 0.0 0.0 0.05 1.40 0.43 73 1019.7
20260506194513 5 63 0.0 0.0 0.03 1.37 0.41 74 1019.8
20260506194014 5 63 0.0 0.0 0.05 1.37 0.41 76 1019.8
20260506193515 4 63 0.0 3.2 0.05 1.37 0.41 77 1019.9
20260506193024 4 59 0.0 4.8 0.05 1.37 0.41 78 1020.0
20260506192532 5 59 0.0 4.8 0.05 1.37 0.41 80 1019.9
20260506192014 4 29 0.0 1.6 0.05 1.37 0.41 81 1020.0
20260506191514 4 29 0.0 1.6 0.03 1.35 0.38 81 1020.1
20260506190523 4 22 0.0 0.0 0.05 1.35 0.38 81 1020.1
20260506190024 4 22 0.0 0.0 0.05 1.35 0.38 84 1020.2
20260506185532 3 22 0.0 0.0 0.05 1.35 0.38 85 1020.3
20260506185032 3 22 0.0 0.0 0.05 1.35 0.38 86 1020.3
20260506184532 3 21 0.0 3.2 0.05 1.35 0.38 87 1020.4
20260506184012 3 21 0.0 3.2 0.03 1.32 0.36 86 1020.4
20260506183521 3 315 0.0 0.0 0.03 1.32 0.36 87 1020.3
20260506183021 3 315 0.0 1.6 0.05 1.32 0.36 88 1020.4
20260506182529 3 315 0.0 1.6 0.05 1.32 0.36 89 1020.5
20260506182013 3 315 0.0 1.6 0.05 1.32 0.36 89 1020.5
20260506181514 3 315 0.0 3.2 0.05 1.32 0.36 90 1020.5
20260506181022 3 315 0.0 3.2 0.05 1.32 0.36 90 1020.6
20260506180524 3 320 0.0 0.0 0.03 1.30 0.33 90 1020.6
20260506180048 3 320 0.0 0.0 0.03 1.30 0.33 90 1020.7
20260506175527 2 320 0.0 0.0 0.03 1.30 0.33 90 1020.6
20260506175012 3 320 0.0 0.0 0.05 1.30 0.33 90 1020.6
20260506174521 2 320 0.0 0.0 0.05 1.30 0.33 90 1020.7
20260506174021 2 320 0.0 0.0 0.05 1.30 0.33 90 1020.7
20260506173521 2 320 0.0 0.0 0.05 1.30 0.33 90 1020.6
20260506173029 2 320 0.0 3.2 0.03 1.27 0.30 90 1020.6
20260506172531 2 320 0.0 3.2 0.03 1.27 0.30 90 1020.5
20260506172038 2 320 0.0 0.0 0.03 1.27 0.30 90 1020.5
20260506171519 2 320 0.0 1.6 0.03 1.27 0.30 91 1020.5
20260506171021 2 320 0.0 1.6 0.05 1.27 0.30 91 1020.5
20260506170522 2 320 0.0 3.2 0.05 1.27 0.30 91 1020.5
20260506170030 2 320 0.0 3.2 0.05 1.27 0.30 92 1020.4
20260506165530 2 320 0.0 3.2 0.05 1.27 0.30 92 1020.4
20260506165013 1 320 0.0 3.2 0.03 1.24 0.28 92 1020.3
20260506164521 1 320 0.0 3.2 0.03 1.24 0.28 92 1020.3
20260506164042 1 320 0.0 3.2 0.03 1.24 0.28 92 1020.3
20260506163530 1 315 0.0 3.2 0.03 1.24 0.28 92 1020.3
20260506163012 1 313 0.0 3.2 0.05 1.24 0.28 93 1020.3
20260506162514 1 311 0.0 3.2 0.05 1.24 0.28 92 1020.1
20260506162023 1 309 0.0 6.4 0.05 1.24 0.28 92 1019.9
20260506161526 1 308 0.0 6.4 0.05 1.24 0.28 93 1019.8
20260506161053 1 302 1.6 6.4 0.03 1.22 0.25 93 1019.7
20260506160513 1 317 1.6 6.4 0.03 1.22 0.25 93 1019.6
20260506160015 1 336 0.0 4.8 0.03 1.22 0.25 93 1019.6
20260506155522 1 336 1.6 4.8 0.03 1.22 0.25 93 1019.8
20260506155024 1 306 0.0 4.8 0.03 1.22 0.25 93 1019.8
20260506154533 1 290 0.0 4.8 0.03 1.22 0.25 93 1019.8
20260506154015 1 288 0.0 6.4 0.03 1.22 0.25 94 1019.7
20260506153516 1 304 0.0 9.7 0.03 1.22 0.25 94 1019.6
20260506153024 1 327 3.2 9.7 0.00 1.19 0.23 94 1019.5
20260506152545 1 320 0.0 6.4 0.00 1.19 0.23 94 1019.4
20260506152033 1 289 0.0 6.4 0.03 1.19 0.23 94 1019.4
20260506151515 1 310 1.6 8.0 0.03 1.19 0.23 94 1019.4
20260506151016 1 330 1.6 8.0 0.03 1.19 0.23 94 1019.3
20260506150524 1 315 0.0 3.2 0.03 1.19 0.23 94 1019.3
20260506150025 1 315 0.0 3.2 0.03 1.19 0.23 94 1019.3
20260506145526 0 315 0.0 4.8 0.03 1.19 0.23 94 1019.3
20260506145034 0 298 0.0 4.8 0.03 1.19 0.23 94 1019.2
20260506144515 0 302 1.6 3.2 0.03 1.19 0.23 94 1019.2
20260506144016 0 320 1.6 3.2 0.03 1.19 0.23 94 1019.2
20260506143543 0 320 0.0 3.2 0.03 1.19 0.23 94 1019.1
20260506143023 0 320 0.0 3.2 0.03 1.19 0.23 94 1019.0
20260506142531 0 320 0.0 1.6 0.03 1.19 0.23 95 1019.0
20260506142033 0 319 0.0 0.0 0.00 1.17 0.20 94 1018.9
20260506141521 0 319 0.0 1.6 0.00 1.17 0.20 94 1018.9
20260506141042 0 319 0.0 1.6 0.00 1.17 0.20 94 1018.9
20260506140549 0 324 0.0 1.6 0.00 1.17 0.20 94 1018.9
20260506140037 0 332 0.0 0.0 0.00 1.17 0.20 95 1018.8
20260506135539 0 332 0.0 0.0 0.00 1.17 0.20 95 1018.8
20260506135019 0 332 0.0 0.0 0.00 1.17 0.20 95 1018.8
20260506134527 0 332 0.0 0.0 0.03 1.17 0.20 95 1018.7
20260506134028 0 332 0.0 0.0 0.03 1.17 0.20 95 1018.7
20260506133536 0 332 0.0 0.0 0.03 1.17 0.20 95 1018.6
20260506133017 0 332 0.0 0.0 0.03 1.17 0.20 94 1018.6
20260506132518 0 332 0.0 0.0 0.03 1.17 0.20 94 1018.4
20260506132026 0 332 0.0 0.0 0.03 1.17 0.20 94 1018.4
20260506131527 0 332 0.0 0.0 0.03 1.17 0.20 94 1018.3
20260506131033 0 332 0.0 0.0 0.03 1.17 0.20 95 1018.3
20260506130535 0 332 0.0 0.0 0.03 1.17 0.20 95 1018.1
20260506130023 0 332 0.0 0.0 0.03 1.17 0.20 95 1017.9
20260506125523 0 332 0.0 0.0 0.03 1.17 0.20 95 1018.0
20260506125024 0 332 0.0 0.0 0.03 1.17 0.20 95 1017.8
20260506124531 0 332 0.0 0.0 0.00 1.14 0.18 95 1017.7
20260506124033 0 332 0.0 0.0 0.00 1.14 0.18 95 1017.8
20260506123521 0 332 0.0 0.0 0.00 1.14 0.18 94 1017.6
20260506123042 0 332 0.0 0.0 0.00 1.14 0.18 94 1017.5
20260506122546 0 332 0.0 0.0 0.00 1.14 0.18 94 1017.6
20260506122027 0 332 0.0 0.0 0.00 1.14 0.18 94 1017.6
20260506121519 0 332 0.0 0.0 0.00 1.14 0.18 94 1017.6
20260506121021 0 332 0.0 0.0 0.00 1.14 0.18 94 1017.5
20260506120522 0 332 0.0 0.0 0.03 1.14 0.18 94 1017.3
20260506120030 0 332 0.0 0.0 0.03 1.14 0.18 94 1017.3
20260506115530 0 332 0.0 0.0 0.03 1.14 0.18 94 1017.3
20260506115038 0 332 0.0 0.0 0.03 1.14 0.18 94 1017.3
20260506114540 0 332 0.0 0.0 0.03 1.14 0.18 94 1017.3
20260506114020 0 332 0.0 0.0 0.03 1.14 0.18 94 1017.3
20260506113528 0 332 0.0 0.0 0.03 1.14 0.18 94 1017.2
20260506113028 0 332 0.0 0.0 0.03 1.14 0.18 94 1017.1
20260506112537 0 332 0.0 0.0 0.03 1.14 0.18 94 1017.0
20260506112018 0 332 0.0 0.0 0.03 1.14 0.18 94 1016.9
20260506111520 0 332 0.0 0.0 0.03 1.14 0.18 94 1016.9
20260506111021 0 332 0.0 0.0 0.03 1.14 0.18 94 1016.7
20260506110529 0 332 0.0 0.0 0.00 1.12 0.15 94 1016.7
20260506110030 0 332 0.0 0.0 0.00 1.12 0.15 95 1016.7
20260506105517 0 332 0.0 0.0 0.00 1.12 0.15 95 1016.7
20260506105018 0 332 0.0 0.0 0.03 1.12 0.15 95 1016.6
20260506104527 0 332 0.0 0.0 0.03 1.12 0.15 95 1016.6
20260506104028 0 332 0.0 0.0 0.03 1.12 0.15 94 1016.6
20260506103528 0 332 0.0 0.0 0.03 1.12 0.15 95 1016.6
20260506103036 0 332 0.0 0.0 0.03 1.12 0.15 94 1016.6
20260506102516 0 332 0.0 0.0 0.03 1.12 0.15 94 1016.7
20260506102045 0 332 0.0 0.0 0.03 1.12 0.15 94 1016.7
20260506101525 0 332 0.0 0.0 0.03 1.12 0.15 94 1016.6
20260506101033 0 332 0.0 0.0 0.03 1.12 0.15 94 1016.6
20260506100514 0 332 0.0 0.0 0.03 1.12 0.15 94 1016.7
20260506100023 0 332 0.0 0.0 0.03 1.14 0.15 94 1016.7
20260506095524 0 332 0.0 0.0 0.03 1.14 0.15 94 1016.9
20260506095026 0 332 0.0 0.0 0.03 1.12 0.13 94 1016.8
20260506094534 0 332 0.0 0.0 0.03 1.12 0.13 94 1016.9
20260506094016 0 332 0.0 0.0 0.03 1.12 0.13 94 1016.9
20260506093517 0 332 0.0 0.0 0.03 1.12 0.13 94 1016.8
20260506093025 0 332 0.0 0.0 0.03 1.12 0.13 94 1016.8
20260506092527 0 332 0.0 0.0 0.03 1.12 0.13 94 1016.7
20260506092029 0 332 0.0 0.0 0.03 1.12 0.13 94 1016.6
20260506091537 0 332 0.0 0.0 0.03 1.12 0.13 94 1016.5
20260506091018 0 332 0.0 0.0 0.03 1.12 0.13 94 1016.6
20260506090519 0 332 0.0 0.0 0.05 1.12 0.13 94 1016.8
20260506090026 0 332 0.0 0.0 0.05 1.12 0.13 94 1016.7
20260506085554 0 332 0.0 0.0 0.05 1.12 0.13 94 1016.7
20260506085107 0 332 0.0 0.0 0.03 1.09 0.10 94 1016.7
20260506084526 0 332 0.0 0.0 0.03 1.09 0.10 94 1016.7
20260506084018 0 332 0.0 0.0 0.03 1.09 0.10 94 1016.6
20260506083532 0 332 0.0 0.0 0.03 1.09 0.10 94 1016.7
20260506083030 0 332 0.0 0.0 0.03 1.09 0.10 94 1016.8
20260506082557 0 332 0.0 0.0 0.05 1.09 0.10 94 1016.7
20260506082017 0 332 0.0 0.0 0.05 1.09 0.10 94 1016.9
20260506081545 0 332 0.0 0.0 0.05 1.09 0.10 94 1016.8
20260506081025 0 332 0.0 0.0 0.05 1.09 0.10 94 1016.9
20260506080527 0 332 0.0 0.0 0.03 1.07 0.08 94 1016.6
20260506073527 0 332 0.0 0.0 0.05 1.07 0.08 94 1017.2
20260506073036 0 332 0.0 0.0 0.05 1.07 0.08 94 1017.0
20260506072538 0 332 0.0 0.0 0.03 1.04 0.05 94 1016.8
20260506072019 0 332 0.0 0.0 0.05 1.04 0.05 94 1016.7
20260506071528 0 332 0.0 0.0 0.05 1.04 0.05 94 1016.7
20260506071029 0 332 0.0 3.2 0.05 1.04 0.05 94 1016.8
20260506070537 0 332 0.0 3.2 0.05 1.04 0.05 94 1016.8
20260506062032 1 332 0.0 0.0 0.05 0.99 0.00 94 1016.4
20260506061514 1 332 0.0 0.0 0.05 0.99 0.00 94 1016.3
20260506061042 1 332 0.0 0.0 0.08 0.99 0.00 94 1016.4
20260506060524 1 332 0.0 0.0 0.08 0.99 0.00 94 1016.4
20260506051043 0 332 0.0 0.0 0.08 0.91 0.91 94 1015.8
20260506050551 0 332 0.0 0.0 0.08 0.91 0.91 94 1015.8
20260506045021 0 332 0.0 0.0 0.08 0.91 0.89 94 1015.8
20260506044522 0 332 0.0 0.0 0.08 0.91 0.89 94 1015.9
20260506044030 0 332 0.0 0.0 0.08 0.91 0.89 94 1015.7
20260506043552 0 332 0.0 0.0 0.08 0.91 0.89 94 1015.7
20260506043039 0 332 0.0 0.0 0.08 0.89 0.86 94 1015.8
20260506042519 0 332 0.0 0.0 0.08 0.89 0.86 94 1015.9
20260506042022 0 332 0.0 0.0 0.08 0.89 0.86 94 1015.8
20260506041530 0 332 0.0 0.0 0.10 0.89 0.86 94 1015.7
20260506041031 0 332 0.0 0.0 0.08 0.86 0.84 94 1015.7
20260506040532 0 332 0.0 0.0 0.08 0.86 0.84 94 1015.6
20260506040013 0 332 0.0 0.0 0.10 0.89 0.84 94 1015.5
20260506035521 0 332 0.0 0.0 0.08 0.86 0.81 94 1015.5
20260506035022 0 332 0.0 0.0 0.10 0.86 0.81 94 1015.6
20260506034529 0 332 0.0 0.0 0.10 0.86 0.81 94 1015.6